DW8945 Weather Reports


Display with metric or nautical units.
time (UTC)temp
F
wind
direction
speed
MPH
gust
MPH
rain 1hr
in
rain 24hr
in
rain mn
in
humidity
%
barometer
mb
20260904203849 85 329 2.0 10.0 0.00 0.00 0.00 46 1006.6
20260904203354 85 331 2.0 10.0 0.00 0.00 0.00 47 1006.6
20260904202900 85 331 2.0 9.0 0.00 0.00 0.00 47 1006.6
20260904202346 85 17 1.0 7.0 0.00 0.00 0.00 47 1006.7
20260904201851 85 275 1.0 6.0 0.00 0.00 0.00 49 1006.6
20260904201358 85 317 2.0 9.0 0.00 0.00 0.00 49 1006.6
20260904200845 85 5 2.0 10.0 0.00 0.00 0.00 49 1006.6
20260904200344 85 303 3.0 10.0 0.00 0.00 0.00 48 1006.6
20260904195854 85 310 1.0 7.0 0.00 0.00 0.00 47 1006.7
20260904195400 85 318 2.0 7.0 0.00 0.00 0.00 46 1006.6
20260904194846 86 281 1.0 7.0 0.00 0.00 0.00 46 1006.5
20260904194352 86 347 1.0 7.0 0.00 0.00 0.00 45 1006.3
20260904193858 86 319 2.0 9.0 0.00 0.00 0.00 46 1006.4
20260904193422 86 294 3.0 9.0 0.00 0.00 0.00 47 1006.4
20260904192909 86 148 1.0 9.0 0.00 0.00 0.00 46 1006.3
20260904192354 86 321 3.0 9.0 0.00 0.00 0.00 45 1006.4
20260904191901 86 84 2.0 10.0 0.00 0.00 0.00 47 1006.3
20260904191347 86 330 4.0 10.0 0.00 0.00 0.00 47 1006.4
20260904190855 86 189 2.0 7.0 0.00 0.00 0.00 48 1006.5
20260904190415 86 69 2.0 8.0 0.00 0.00 0.00 48 1006.6
20260904185903 86 327 2.0 11.0 0.00 0.00 0.00 48 1006.7
20260904185423 86 319 1.0 11.0 0.00 0.00 0.00 47 1006.8
20260904184846 86 308 2.0 9.0 0.00 0.00 0.00 49 1006.8
20260904184351 86 285 2.0 9.0 0.00 0.00 0.00 49 1006.7
20260904183858 85 247 1.0 8.0 0.00 0.00 0.00 49 1006.6
20260904183359 85 331 1.0 8.0 0.00 0.00 0.00 50 1006.7
20260904182846 85 15 1.0 6.0 0.00 0.00 0.00 49 1006.7
20260904182351 85 259 1.0 8.0 0.00 0.00 0.00 50 1006.7
20260904181859 85 311 1.0 8.0 0.00 0.00 0.00 50 1006.7
20260904181344 85 97 1.0 10.0 0.00 0.00 0.00 51 1006.8
20260904180912 84 294 1.0 10.0 0.00 0.00 0.00 54 1006.7
20260904180349 85 323 1.0 8.0 0.00 0.00 0.00 53 1006.7
20260904175900 84 314 3.0 6.0 0.00 0.00 0.00 54 1006.8
20260904175346 83 335 1.0 7.0 0.00 0.00 0.00 57 1006.9
20260904174849 84 333 1.0 7.0 0.00 0.00 0.00 55 1006.8
20260904174355 84 321 1.0 6.0 0.00 0.00 0.00 55 1006.9
20260904173902 84 330 1.0 6.0 0.00 0.00 0.00 54 1006.9
20260904173423 85 336 0.0 5.0 0.00 0.00 0.00 54 1006.8
20260904172845 84 67 1.0 7.0 0.00 0.00 0.00 56 1006.9
20260904172351 84 130 0.0 7.0 0.00 0.00 0.00 56 1007.0
20260904171855 84 118 0.0 5.0 0.00 0.00 0.00 54 1007.0
20260904171400 85 267 1.0 5.0 0.00 0.00 0.00 54 1007.2
20260904170906 85 165 1.0 7.0 0.00 0.00 0.00 54 1007.4
20260904170405 85 321 0.0 6.0 0.00 0.00 0.00 55 1007.4
20260904165857 84 309 2.0 7.0 0.00 0.00 0.00 55 1007.4
20260904165344 84 325 1.0 7.0 0.00 0.00 0.00 57 1007.3
20260904164847 84 351 1.0 5.0 0.00 0.00 0.00 56 1007.3
20260904164414 83 72 1.0 6.0 0.00 0.00 0.00 58 1007.4
20260904163900 83 61 1.0 6.0 0.00 0.00 0.00 58 1007.5
20260904163344 83 343 1.0 6.0 0.00 0.00 0.00 59 1007.5
20260904162850 84 336 2.0 6.0 0.00 0.00 0.00 58 1007.5
20260904162351 84 327 2.0 9.0 0.00 0.00 0.00 58 1007.5
20260904161849 84 327 3.0 9.0 0.00 0.00 0.00 57 1007.5
20260904161356 84 5 1.0 5.0 0.00 0.00 0.00 57 1007.7
20260904160902 84 342 1.0 7.0 0.00 0.00 0.00 61 1007.7
20260904160357 83 343 2.0 8.0 0.00 0.00 0.00 60 1007.7
20260904155900 83 342 2.0 8.0 0.00 0.00 0.00 60 1007.9
20260904155346 83 355 0.0 6.0 0.00 0.00 0.00 61 1008.0
20260904154850 83 355 2.0 8.0 0.00 0.00 0.00 62 1007.9
20260904154356 82 355 2.0 9.0 0.00 0.00 0.00 61 1007.9
20260904153901 82 355 3.0 9.0 0.00 0.00 0.00 61 1007.9
20260904153347 82 16 2.0 6.0 0.00 0.00 0.00 62 1008.0
20260904152854 81 347 1.0 5.0 0.00 0.00 0.00 62 1008.0
20260904152401 81 348 1.0 6.0 0.00 0.00 0.00 61 1008.1
20260904151846 82 319 2.0 6.0 0.00 0.00 0.00 63 1008.1
20260904151350 81 319 1.0 6.0 0.00 0.00 0.00 63 1008.2
20260904150915 81 319 1.0 6.0 0.00 0.00 0.00 64 1008.1
20260904150354 81 319 1.0 6.0 0.00 0.00 0.00 66 1008.2
20260904145845 80 319 1.0 7.0 0.00 0.00 0.00 67 1008.3
20260904145352 80 304 1.0 7.0 0.00 0.00 0.00 67 1008.3
20260904144845 80 302 1.0 4.0 0.00 0.00 0.00 68 1008.3
20260904144350 80 302 1.0 4.0 0.00 0.00 0.00 67 1008.3
20260904143914 79 302 1.0 5.0 0.00 0.00 0.00 68 1008.3
20260904143356 79 302 1.0 6.0 0.00 0.00 0.00 70 1008.3
20260904142902 79 300 1.0 6.0 0.00 0.00 0.00 70 1008.4
20260904142348 79 298 1.0 5.0 0.00 0.00 0.00 71 1008.5
20260904141852 79 296 1.0 8.0 0.00 0.00 0.00 71 1008.5
20260904141357 78 295 2.0 8.0 0.00 0.00 0.00 71 1008.5
20260904140844 78 269 1.0 6.0 0.00 0.00 0.00 72 1008.6
20260904140423 78 245 2.0 4.0 0.00 0.00 0.00 73 1008.6
20260904135851 77 218 0.0 3.0 0.00 0.00 0.00 75 1008.5
20260904135418 77 218 0.0 3.0 0.00 0.00 0.00 76 1008.5
20260904134901 76 218 1.0 3.0 0.00 0.00 0.00 77 1008.5
20260904134349 76 219 1.0 3.0 0.00 0.00 0.00 79 1008.5
20260904133853 75 216 0.0 3.0 0.00 0.00 0.00 83 1008.5
20260904133358 75 216 1.0 3.0 0.00 0.00 0.00 85 1008.6
20260904132904 74 216 1.0 3.0 0.00 0.00 0.00 87 1008.6
20260904132348 74 216 1.0 2.0 0.00 0.00 0.00 88 1008.6
20260904131851 73 216 0.0 4.0 0.00 0.00 0.00 90 1008.7
20260904131356 73 216 1.0 4.0 0.00 0.00 0.00 91 1008.6
20260904130900 72 202 0.0 2.0 0.00 0.00 0.00 94 1008.6
20260904130355 70 202 0.0 4.0 0.00 0.00 0.00 94 1008.8
20260904125846 70 202 2.0 4.0 0.00 0.00 0.00 94 1008.8
20260904125352 70 188 0.0 3.0 0.00 0.00 0.00 94 1008.8
20260904124854 70 187 0.0 1.0 0.00 0.00 0.00 95 1008.8
20260904124401 69 187 0.0 1.0 0.00 0.00 0.00 95 1008.9
20260904123905 69 187 0.0 0.0 0.00 0.00 0.00 96 1008.9
20260904123345 68 187 0.0 4.0 0.00 0.00 0.00 95 1008.8
20260904122851 68 187 1.0 4.0 0.00 0.00 0.00 96 1008.9
20260904122358 67 167 0.0 1.0 0.00 0.00 0.00 96 1008.9
20260904121846 67 167 0.0 2.0 0.00 0.00 0.00 96 1008.9
20260904121353 67 167 0.0 2.0 0.00 0.00 0.00 96 1008.9
20260904120901 67 167 0.0 2.0 0.00 0.00 0.00 96 1008.9
20260904120348 66 167 0.0 0.0 0.00 0.00 0.00 96 1008.8
20260904115900 66 167 0.0 1.0 0.00 0.00 0.00 95 1008.8
20260904115346 66 167 0.0 1.0 0.00 0.00 0.00 95 1008.8
20260904114900 66 167 0.0 1.0 0.00 0.00 0.00 96 1008.8
20260904114346 66 167 0.0 1.0 0.00 0.00 0.00 96 1008.8
20260904113851 66 167 0.0 0.0 0.00 0.00 0.00 96 1008.8
20260904113354 66 167 0.0 0.0 0.00 0.00 0.00 96 1008.8
20260904112900 66 167 0.0 0.0 0.00 0.00 0.00 95 1008.7
20260904112346 66 167 0.0 0.0 0.00 0.00 0.00 95 1008.6
20260904111846 66 167 0.0 0.0 0.00 0.00 0.00 95 1008.6
20260904111352 66 167 0.0 0.0 0.00 0.00 0.00 95 1008.7
20260904110900 66 167 0.0 0.0 0.00 0.00 0.00 95 1008.6
20260904110354 66 167 0.0 1.0 0.00 0.00 0.00 95 1008.6
20260904105903 66 167 0.0 1.0 0.00 0.00 0.00 95 1008.6
20260904105346 66 167 0.0 1.0 0.00 0.00 0.00 95 1008.6
20260904104849 66 167 0.0 1.0 0.00 0.00 0.00 95 1008.6
20260904104355 66 167 0.0 1.0 0.00 0.00 0.00 95 1008.6
20260904103859 67 167 0.0 1.0 0.00 0.00 0.00 95 1008.5
20260904103401 67 167 0.0 0.0 0.00 0.00 0.00 95 1008.4
20260904102848 67 167 0.0 0.0 0.00 0.00 0.00 95 1008.4
20260904102355 67 167 0.0 0.0 0.00 0.00 0.00 95 1008.4
20260904101856 67 167 0.0 0.0 0.00 0.00 0.00 95 1008.4
20260904101401 66 167 0.0 0.0 0.00 0.00 0.00 95 1008.4
20260904100848 66 167 0.0 1.0 0.00 0.00 0.00 95 1008.3
20260904100407 67 167 0.0 1.0 0.00 0.00 0.00 95 1008.2
20260904095855 67 167 0.0 0.0 0.00 0.00 0.00 95 1008.2
20260904095418 67 167 0.0 0.0 0.00 0.00 0.00 95 1008.2
20260904094859 67 167 0.0 0.0 0.00 0.00 0.00 95 1008.3
20260904094404 67 167 0.0 0.0 0.00 0.00 0.00 95 1008.4
20260904093848 67 167 0.0 0.0 0.00 0.00 0.00 95 1008.4
20260904093350 67 167 0.0 0.0 0.00 0.00 0.00 95 1008.4
20260904092914 67 167 0.0 0.0 0.00 0.00 0.00 95 1008.4
20260904092359 67 167 0.0 0.0 0.00 0.00 0.00 95 1008.4
20260904091844 67 167 0.0 0.0 0.00 0.00 0.00 95 1008.4
20260904091352 67 167 0.0 0.0 0.00 0.00 0.00 95 1008.3
20260904090858 67 167 0.0 0.0 0.00 0.00 0.00 95 1008.2
20260904090354 67 167 0.0 0.0 0.00 0.00 0.00 95 1008.2
20260904085845 67 167 0.0 0.0 0.00 0.00 0.00 95 1008.2
20260904085353 67 167 0.0 0.0 0.00 0.00 0.00 95 1008.2
20260904084857 67 167 0.0 0.0 0.00 0.00 0.00 95 1008.2
20260904084342 67 167 0.0 0.0 0.00 0.00 0.00 95 1008.2
20260904083847 67 167 0.0 0.0 0.00 0.00 0.00 95 1008.2
20260904083353 67 167 0.0 0.0 0.00 0.00 0.00 94 1008.2
20260904082858 67 167 0.0 0.0 0.00 0.00 0.00 94 1008.3
20260904082343 67 167 0.0 0.0 0.00 0.00 0.00 94 1008.3
20260904081846 67 167 0.0 0.0 0.00 0.00 0.00 94 1008.3
20260904081353 67 167 0.0 0.0 0.00 0.00 0.00 94 1008.4
20260904080858 67 167 0.0 0.0 0.00 0.00 0.00 94 1008.5
20260904080357 67 167 0.0 0.0 0.00 0.00 0.00 94 1008.4
20260904075846 67 167 0.0 0.0 0.00 0.00 0.00 94 1008.6
20260904075352 67 167 0.0 0.0 0.00 0.00 0.00 94 1008.6
20260904074914 67 167 0.0 0.0 0.00 0.00 0.00 94 1008.5
20260904074359 67 167 0.0 0.0 0.00 0.00 0.00 94 1008.6
20260904073906 67 167 0.0 0.0 0.00 0.00 0.00 94 1008.6
20260904073348 67 167 0.0 0.0 0.00 0.00 0.00 94 1008.7
20260904072855 67 167 0.0 0.0 0.00 0.00 0.00 94 1008.7
20260904072343 66 167 0.0 0.0 0.00 0.00 0.00 93 1009.0
20260904071848 66 167 0.0 0.0 0.00 0.00 0.00 93 1008.9
20260904071354 66 167 0.0 0.0 0.00 0.00 0.00 93 1008.7
20260904070900 67 167 0.0 0.0 0.00 0.00 0.00 93 1008.7
20260904070355 67 167 0.0 0.0 0.00 0.00 0.00 93 1008.8
20260904065900 67 167 0.0 0.0 0.00 0.00 0.00 93 1008.8
20260904065345 67 167 0.0 0.0 0.00 0.00 0.00 93 1008.9
20260904064848 67 167 0.0 0.0 0.00 0.00 0.00 93 1008.8
20260904064353 67 167 0.0 0.0 0.00 0.00 0.00 93 1008.8
20260904063900 67 167 0.0 0.0 0.00 0.00 0.00 93 1008.8
20260904063404 67 167 0.0 0.0 0.00 0.00 0.00 93 1008.8
20260904062848 67 167 0.0 0.0 0.00 0.00 0.00 93 1008.9
20260904062354 67 167 0.0 0.0 0.00 0.00 0.00 93 1008.8
20260904061859 67 167 0.0 0.0 0.00 0.00 0.00 93 1008.9
20260904061344 67 167 0.0 1.0 0.00 0.00 0.00 93 1008.8
20260904060849 67 167 0.0 2.0 0.00 0.00 0.00 93 1008.9
20260904060344 67 167 0.0 2.0 0.00 0.00 0.00 93 1009.1
20260904055912 67 167 0.0 0.0 0.00 0.00 0.00 93 1009.1
20260904055359 67 167 0.0 0.0 0.00 0.00 0.00 93 1009.2
20260904054842 68 167 0.0 0.0 0.00 0.00 0.00 93 1009.4
20260904054348 68 167 0.0 0.0 0.00 0.00 0.00 93 1009.5
20260904053854 68 167 0.0 0.0 0.00 0.00 0.00 93 1009.6
20260904053358 68 167 0.0 0.0 0.00 0.00 0.00 93 1009.7
20260904052843 68 167 0.0 2.0 0.00 0.00 0.00 93 1009.7
20260904052350 68 167 0.0 2.0 0.00 0.00 0.00 93 1009.6
20260904051853 68 167 0.0 1.0 0.00 0.00 0.00 93 1009.6
20260904051400 68 167 0.0 3.0 0.00 0.00 0.00 93 1009.7
20260904050845 68 167 1.0 3.0 0.00 0.00 0.00 93 1009.7
20260904050400 68 167 1.0 2.0 0.00 0.00 0.00 93 1009.6
20260904045910 68 167 0.0 2.0 0.00 0.00 0.00 93 1009.7
20260904045354 68 167 0.0 2.0 0.00 0.00 0.00 93 1009.9
20260904044858 68 167 0.0 0.0 0.00 0.00 0.00 93 1009.8
20260904044343 68 167 0.0 1.0 0.00 0.00 0.00 92 1009.9
20260904043848 68 167 0.0 0.0 0.00 0.00 0.00 92 1009.9
20260904043350 68 167 0.0 0.0 0.00 0.00 0.00 92 1009.8
20260904042856 68 167 0.0 0.0 0.00 0.00 0.00 92 1009.9
20260904042341 68 167 0.0 0.0 0.00 0.00 0.00 92 1009.9
20260904041846 69 167 0.0 0.0 0.00 0.00 0.00 92 1010.0
20260904041351 69 167 0.0 0.0 0.00 0.00 0.00 92 1009.9
20260904040917 69 167 0.0 0.0 0.00 0.00 0.00 92 1010.0
20260904040349 69 167 0.0 0.0 0.00 0.00 0.00 91 1010.0
20260904035852 69 167 0.0 0.0 0.00 0.00 0.00 91 1010.0
20260904035359 69 167 0.0 0.0 0.00 0.00 0.00 91 1010.0
20260904034912 69 167 0.0 0.0 0.00 0.00 0.00 91 1010.1
20260904034359 69 167 0.0 0.0 0.00 0.00 0.00 91 1010.1
20260904033845 69 167 0.0 0.0 0.00 0.00 0.00 91 1010.2
20260904033408 69 167 0.0 0.0 0.00 0.00 0.00 91 1010.3
20260904032852 69 167 0.0 0.0 0.00 0.00 0.00 91 1010.3
20260904032358 69 167 0.0 0.0 0.00 0.00 0.00 91 1010.2
20260904031900 69 167 0.0 0.0 0.00 0.00 0.00 91 1010.1
20260904031346 69 167 0.0 0.0 0.00 0.00 0.00 90 1010.1
20260904030853 70 167 0.0 0.0 0.00 0.00 0.00 90 1010.2
20260904030348 70 167 0.0 0.0 0.00 0.00 0.00 90 1010.2
20260904025919 70 167 0.0 0.0 0.00 0.00 0.00 90 1010.2
20260904025342 70 167 0.0 0.0 0.00 0.00 0.00 90 1010.2
20260904024907 70 167 0.0 0.0 0.00 0.00 0.00 90 1010.2
20260904024350 70 167 0.0 1.0 0.00 0.00 0.00 90 1010.3
20260904023855 70 167 0.0 1.0 0.00 0.00 0.00 90 1010.3
20260904023418 70 167 0.0 0.0 0.00 0.00 0.00 90 1010.5
20260904022843 70 167 0.0 0.0 0.00 0.00 0.00 90 1010.5
20260904022348 70 167 0.0 0.0 0.00 0.00 0.00 90 1010.6
20260904021853 70 167 0.0 0.0 0.00 0.00 0.00 89 1010.7
20260904021359 70 167 0.0 0.0 0.00 0.00 0.00 89 1010.7
20260904020847 70 167 0.0 0.0 0.00 0.00 0.00 89 1010.7
20260904020342 70 167 0.0 0.0 0.00 0.00 0.00 89 1010.8
20260904015853 71 167 0.0 0.0 0.00 0.00 0.00 89 1010.8
20260904015358 71 167 0.0 0.0 0.00 0.00 0.00 89 1010.8
20260904014855 71 167 0.0 1.0 0.00 0.00 0.00 89 1010.7
20260904014340 71 167 0.0 1.0 0.00 0.00 0.00 89 1010.7
20260904013847 71 167 0.0 0.0 0.00 0.00 0.00 89 1010.8
20260904013347 71 167 0.0 0.0 0.00 0.00 0.00 88 1010.8
20260904012854 71 167 0.0 0.0 0.00 0.00 0.00 88 1010.8
20260904012358 71 167 0.0 1.0 0.00 0.00 0.00 88 1010.8
20260904011900 71 167 0.0 1.0 0.00 0.00 0.00 88 1010.8
20260904011346 71 167 0.0 0.0 0.00 0.00 0.00 88 1010.8
20260904010851 71 167 0.0 0.0 0.00 0.00 0.00 88 1010.8
20260904010348 72 167 0.0 0.0 0.00 0.00 0.00 88 1010.8
20260904005918 72 167 0.0 0.0 0.00 0.00 0.00 87 1010.8
20260904005342 72 167 0.0 0.0 0.00 0.00 0.00 88 1010.8
20260904004845 72 167 0.0 0.0 0.00 0.00 0.00 87 1010.6
20260904004350 72 167 0.0 0.0 0.00 0.00 0.00 87 1010.6
20260904003916 72 167 0.0 0.0 0.00 0.00 0.00 87 1010.6
20260904003356 72 167 0.0 0.0 0.00 0.00 0.00 87 1010.5
20260904002858 72 167 0.0 1.0 0.00 0.00 0.00 87 1010.5
20260904002403 72 167 0.0 1.0 0.00 0.00 0.00 86 1010.3
20260904001844 72 167 0.0 1.0 0.00 0.00 0.00 86 1010.2
20260904001348 72 167 0.0 1.0 0.00 0.00 0.00 86 1010.3
20260904000853 73 167 0.0 2.0 0.00 0.00 0.00 86 1010.2
20260904000350 73 167 0.0 2.0 0.00 0.00 0.00 86 1010.1
20260903235840 73 167 0.0 1.0 0.00 0.00 0.00 85 1010.1
20260903235345 73 167 0.0 2.0 0.00 0.00 0.00 85 1010.1
20260903234847 73 167 0.0 0.0 0.00 0.00 0.00 85 1010.2
20260903234352 74 167 0.0 0.0 0.00 0.00 0.00 84 1010.0
20260903233858 74 167 0.0 1.0 0.00 0.00 0.00 84 1010.0
20260903233341 74 167 0.0 3.0 0.00 0.00 0.00 84 1010.1
20260903232845 74 167 0.0 4.0 0.00 0.00 0.00 83 1010.0
20260903232348 74 167 1.0 4.0 0.00 0.00 0.00 83 1010.1
20260903231851 75 167 1.0 4.0 0.00 0.00 0.00 82 1010.3
20260903231415 75 167 0.0 3.0 0.00 0.00 0.00 82 1010.3
20260903230841 75 167 0.0 3.0 0.00 0.00 0.00 82 1010.2
20260903230356 76 167 0.0 3.0 0.00 0.00 0.00 81 1010.0
20260903225845 76 167 0.0 3.0 0.00 0.00 0.00 81 1009.8
20260903225349 77 167 1.0 3.0 0.00 0.00 0.00 80 1009.9
20260903224850 77 167 1.0 2.0 0.00 0.00 0.00 80 1009.8
20260903224357 77 167 0.0 3.0 0.00 0.00 0.00 80 1009.8
20260903223842 77 167 0.0 2.0 0.00 0.00 0.00 79 1009.9
20260903223343 78 167 0.0 3.0 0.00 0.00 0.00 79 1010.1
20260903222845 78 167 1.0 3.0 0.00 0.00 0.00 78 1010.1
20260903222412 78 167 0.0 2.0 0.00 0.00 0.00 78 1010.2
20260903221912 78 167 1.0 3.0 0.00 0.00 0.00 78 1010.5
20260903221356 78 167 2.0 3.0 0.00 0.00 0.00 78 1010.4
20260903220903 78 153 1.0 3.0 0.00 0.00 0.00 79 1010.3
20260903220359 78 152 1.0 3.0 0.00 0.00 0.00 78 1010.2
20260903215859 78 152 0.0 2.0 0.00 0.00 0.00 78 1010.4
20260903215343 78 152 1.0 2.0 0.00 0.00 0.00 78 1010.3
20260903214844 78 152 0.0 2.0 0.00 0.00 0.00 78 1010.3
20260903214349 78 152 0.0 3.0 0.00 0.00 0.00 78 1010.2
20260903213854 78 152 0.0 3.0 0.00 0.00 0.00 78 1010.2
20260903213354 78 152 1.0 4.0 0.00 0.00 0.00 77 1010.2
20260903212857 78 152 1.0 3.0 0.00 0.00 0.00 78 1010.2
20260903212359 78 152 0.0 2.0 0.00 0.00 0.00 78 1010.2
20260903211840 77 152 0.0 1.0 0.00 0.00 0.00 78 1010.2
20260903211347 77 152 0.0 3.0 0.00 0.00 0.00 78 1010.2
20260903210854 78 152 1.0 3.0 0.00 0.00 0.00 77 1010.2
20260903210348 78 152 0.0 4.0 0.00 0.00 0.00 77 1010.2
20260903205859 78 152 2.0 4.0 0.00 0.00 0.00 78 1010.1
20260903205343 78 152 1.0 4.0 0.00 0.00 0.00 78 1010.1
20260903204843 77 153 1.0 4.0 0.00 0.00 0.00 78 1010.1
20260903204349 78 153 0.0 4.0 0.00 0.00 0.00 78 1010.2